This is the latest recevied weather packets stored in our database for station/object K7FLA. If no packets are shown the sender has not sent any weather packets the latest 10 day(s).
| Time | Temp. | Humidity | Pressure | Rain* | Wind** | Luminosity | Snow |
|---|---|---|---|---|---|---|---|
| 1778121345 | 20° C | 47% | 1097 hPa | 0 mm | - | 3 W/m² | - |
| 1778121043 | 20.56° C | 45% | 1096.7 hPa | 0 mm | - | 6 W/m² | - |
| 1778120739 | 20.56° C | 44% | 1096.8 hPa | 0 mm | - | 9 W/m² | - |
| 1778120435 | 20.56° C | 44% | 1096.6 hPa | 0 mm | - | 12 W/m² | - |
| 1778120131 | 21.11° C | 43% | 1096.7 hPa | 0 mm | - | 15 W/m² | - |
| 1778119828 | 21.11° C | 43% | 1096.7 hPa | 0 mm | - | 19 W/m² | - |
| 1778119525 | 21.67° C | 43% | 1096.4 hPa | 0 mm | - | 22 W/m² | - |
| 1778119222 | 22.22° C | 42% | 1096.6 hPa | 0 mm | - | 25 W/m² | - |
| 1778118920 | 22.78° C | 41% | 1096.6 hPa | 0 mm | - | 28 W/m² | - |
| 1778118617 | 22.78° C | 39% | 1096.3 hPa | 0 mm | - | 33 W/m² | - |
| 1778118314 | 22.78° C | 39% | 1096.3 hPa | 0 mm | - | 41 W/m² | - |
| 1778118010 | 22.78° C | 38% | 1096.5 hPa | 0 mm | - | 44 W/m² | - |
| 1778117706 | 23.33° C | 37% | 1096.3 hPa | 0 mm | - | 48 W/m² | - |
| 1778117404 | 23.33° C | 37% | 1096.3 hPa | 0 mm | - | 52 W/m² | - |
| 1778117101 | 23.33° C | 36% | 1096.3 hPa | 0 mm | - | 58 W/m² | - |
| 1778116797 | 23.89° C | 36% | 1096.4 hPa | 0 mm | - | 61 W/m² | - |
| 1778116494 | 23.89° C | 36% | 1096.2 hPa | 0 mm | - | 67 W/m² | - |
| 1778116190 | 23.89° C | 36% | 1096.4 hPa | 0 mm | - | 79 W/m² | - |
| 1778115884 | 23.89° C | 36% | 1096.3 hPa | 0 mm | - | 90 W/m² | - |
| 1778115581 | 23.89° C | 36% | 1096.2 hPa | 0 mm | - | 105 W/m² | - |
| 1778115279 | 23.89° C | 35% | 1096.3 hPa | 0 mm | - | 113 W/m² | - |
| 1778114975 | 24.44° C | 34% | 1096.3 hPa | 0 mm | - | 132 W/m² | - |
| 1778114672 | 24.44° C | 35% | 1096.2 hPa | 0 mm | - | 147 W/m² | - |
| 1778114370 | 24.44° C | 34% | 1096 hPa | 0 mm | - | 165 W/m² | - |
| 1778114064 | 24.44° C | 35% | 1096.3 hPa | 0 mm | - | 188 W/m² | - |
* Rain latest hour (hover to see other rain measurements)
** Current wind speed in m/s (hover to see current wind gust speed)